owner,sensor,date,latitude,longitude,relative_humidity,qcFlag 
COMPS,ioos:station:USF.COMPS:SHP:1,2016-12-01T00:00:00Z,30.0600,-84.2910,98.19,1111122 
COMPS,ioos:station:USF.COMPS:SHP:1,2016-12-01T00:06:00Z,30.0600,-84.2910,98.16,1111122 
COMPS,ioos:station:USF.COMPS:SHP:1,2016-12-01T00:12:00Z,30.0600,-84.2910,98.15,1111122 
COMPS,ioos:station:USF.COMPS:SHP:1,2016-12-01T00:18:00Z,30.0600,-84.2910,98.09,1111122 
COMPS,ioos:station:USF.COMPS:SHP:1,2016-12-01T00:24:00Z,30.0600,-84.2910,98.06,1111122 
COMPS,ioos:station:USF.COMPS:SHP:1,2016-12-01T00:30:00Z,30.0600,-84.2910,98.01,1111122 
COMPS,ioos:station:USF.COMPS:SHP:1,2016-12-01T00:36:00Z,30.0600,-84.2910,98.12,1111122 
COMPS,ioos:station:USF.COMPS:SHP:1,2016-12-01T00:42:00Z,30.0600,-84.2910,96.72,1111122 
COMPS,ioos:station:USF.COMPS:SHP:1,2016-12-01T00:48:00Z,30.0600,-84.2910,96.33,1111122 
COMPS,ioos:station:USF.COMPS:SHP:1,2016-12-01T00:54:00Z,30.0600,-84.2910,96.86,1111122 
COMPS,ioos:station:USF.COMPS:SHP:1,2016-12-01T01:00:00Z,30.0600,-84.2910,97.1,1111122 
COMPS,ioos:station:USF.COMPS:SHP:1,2016-12-01T01:06:00Z,30.0600,-84.2910,96.94,1111122 
COMPS,ioos:station:USF.COMPS:SHP:1,2016-12-01T01:12:00Z,30.0600,-84.2910,96.83,1111122 
COMPS,ioos:station:USF.COMPS:SHP:1,2016-12-01T01:18:00Z,30.0600,-84.2910,96.89,1111122 
COMPS,ioos:station:USF.COMPS:SHP:1,2016-12-01T01:24:00Z,30.0600,-84.2910,97.13,1111122 
COMPS,ioos:station:USF.COMPS:SHP:1,2016-12-01T01:30:00Z,30.0600,-84.2910,97.12,1111122 
COMPS,ioos:station:USF.COMPS:SHP:1,2016-12-01T01:36:00Z,30.0600,-84.2910,97.22,1111122 
COMPS,ioos:station:USF.COMPS:SHP:1,2016-12-01T01:42:00Z,30.0600,-84.2910,97.27,1111122 
COMPS,ioos:station:USF.COMPS:SHP:1,2016-12-01T01:48:00Z,30.0600,-84.2910,97.37,1111122 
COMPS,ioos:station:USF.COMPS:SHP:1,2016-12-01T01:54:00Z,30.0600,-84.2910,97.27,1111122 
COMPS,ioos:station:USF.COMPS:SHP:1,2016-12-01T02:00:00Z,30.0600,-84.2910,97.29,1111122 
COMPS,ioos:station:USF.COMPS:SHP:1,2016-12-01T02:06:00Z,30.0600,-84.2910,97.35,1111122 
COMPS,ioos:station:USF.COMPS:SHP:1,2016-12-01T02:12:00Z,30.0600,-84.2910,97.46,1111122 
COMPS,ioos:station:USF.COMPS:SHP:1,2016-12-01T02:18:00Z,30.0600,-84.2910,97.44,1111122 
COMPS,ioos:station:USF.COMPS:SHP:1,2016-12-01T02:24:00Z,30.0600,-84.2910,97.48,1111122 
COMPS,ioos:station:USF.COMPS:SHP:1,2016-12-01T02:30:00Z,30.0600,-84.2910,97.4,1111122 
COMPS,ioos:station:USF.COMPS:SHP:1,2016-12-01T02:36:00Z,30.0600,-84.2910,97.46,1111122 
COMPS,ioos:station:USF.COMPS:SHP:1,2016-12-01T02:42:00Z,30.0600,-84.2910,97.25,1111122 
COMPS,ioos:station:USF.COMPS:SHP:1,2016-12-01T02:48:00Z,30.0600,-84.2910,96.97,1111122 
COMPS,ioos:station:USF.COMPS:SHP:1,2016-12-01T02:54:00Z,30.0600,-84.2910,97.08,1111122 
COMPS,ioos:station:USF.COMPS:SHP:1,2016-12-01T03:00:00Z,30.0600,-84.2910,97.23,1111122 
COMPS,ioos:station:USF.COMPS:SHP:1,2016-12-01T03:06:00Z,30.0600,-84.2910,97.39,1111122 
COMPS,ioos:station:USF.COMPS:SHP:1,2016-12-01T03:12:00Z,30.0600,-84.2910,93.58,1111122 
COMPS,ioos:station:USF.COMPS:SHP:1,2016-12-01T03:18:00Z,30.0600,-84.2910,95.07,1111122 
COMPS,ioos:station:USF.COMPS:SHP:1,2016-12-01T03:24:00Z,30.0600,-84.2910,96.34,1111122 
COMPS,ioos:station:USF.COMPS:SHP:1,2016-12-01T03:30:00Z,30.0600,-84.2910,96.29,1111122 
COMPS,ioos:station:USF.COMPS:SHP:1,2016-12-01T03:36:00Z,30.0600,-84.2910,96.16,1111122 
COMPS,ioos:station:USF.COMPS:SHP:1,2016-12-01T03:42:00Z,30.0600,-84.2910,96.21,1111122 
COMPS,ioos:station:USF.COMPS:SHP:1,2016-12-01T03:48:00Z,30.0600,-84.2910,96.09,1111122 
COMPS,ioos:station:USF.COMPS:SHP:1,2016-12-01T03:54:00Z,30.0600,-84.2910,96.65,1111122 
COMPS,ioos:station:USF.COMPS:SHP:1,2016-12-01T04:00:00Z,30.0600,-84.2910,96.92,1111122 
COMPS,ioos:station:USF.COMPS:SHP:1,2016-12-01T04:06:00Z,30.0600,-84.2910,96.95,1111122 
COMPS,ioos:station:USF.COMPS:SHP:1,2016-12-01T04:12:00Z,30.0600,-84.2910,96.92,1111122 
COMPS,ioos:station:USF.COMPS:SHP:1,2016-12-01T04:18:00Z,30.0600,-84.2910,96.83,1111122 
COMPS,ioos:station:USF.COMPS:SHP:1,2016-12-01T04:24:00Z,30.0600,-84.2910,96.25,1111122 
COMPS,ioos:station:USF.COMPS:SHP:1,2016-12-01T04:30:00Z,30.0600,-84.2910,96.07,1111122 
COMPS,ioos:station:USF.COMPS:SHP:1,2016-12-01T04:36:00Z,30.0600,-84.2910,94.69,1111122 
COMPS,ioos:station:USF.COMPS:SHP:1,2016-12-01T04:42:00Z,30.0600,-84.2910,94.53,1111122 
COMPS,ioos:station:USF.COMPS:SHP:1,2016-12-01T04:48:00Z,30.0600,-84.2910,91.04,1111122 
COMPS,ioos:station:USF.COMPS:SHP:1,2016-12-01T04:54:00Z,30.0600,-84.2910,89.11,1111122 
COMPS,ioos:station:USF.COMPS:SHP:1,2016-12-01T05:00:00Z,30.0600,-84.2910,87.77,1111122 
COMPS,ioos:station:USF.COMPS:SHP:1,2016-12-01T05:06:00Z,30.0600,-84.2910,88.27,1111122 
COMPS,ioos:station:USF.COMPS:SHP:1,2016-12-01T05:12:00Z,30.0600,-84.2910,90.63,1111122 
COMPS,ioos:station:USF.COMPS:SHP:1,2016-12-01T05:18:00Z,30.0600,-84.2910,90.92,1111122 
COMPS,ioos:station:USF.COMPS:SHP:1,2016-12-01T05:24:00Z,30.0600,-84.2910,89.79,1111122 
COMPS,ioos:station:USF.COMPS:SHP:1,2016-12-01T05:30:00Z,30.0600,-84.2910,89.24,1111122 
COMPS,ioos:station:USF.COMPS:SHP:1,2016-12-01T05:36:00Z,30.0600,-84.2910,87.76,1111122 
COMPS,ioos:station:USF.COMPS:SHP:1,2016-12-01T05:42:00Z,30.0600,-84.2910,86.12,1111122 
COMPS,ioos:station:USF.COMPS:SHP:1,2016-12-01T05:48:00Z,30.0600,-84.2910,84.34,1111122 
COMPS,ioos:station:USF.COMPS:SHP:1,2016-12-01T05:54:00Z,30.0600,-84.2910,85.54,1111122 
COMPS,ioos:station:USF.COMPS:SHP:1,2016-12-01T06:00:00Z,30.0600,-84.2910,87.73,1111122 
COMPS,ioos:station:USF.COMPS:SHP:1,2016-12-01T06:06:00Z,30.0600,-84.2910,87.78,1111122 
COMPS,ioos:station:USF.COMPS:SHP:1,2016-12-01T06:12:00Z,30.0600,-84.2910,88.13,1111122 
COMPS,ioos:station:USF.COMPS:SHP:1,2016-12-01T06:18:00Z,30.0600,-84.2910,88.44,1111122 
COMPS,ioos:station:USF.COMPS:SHP:1,2016-12-01T06:24:00Z,30.0600,-84.2910,88.16,1111122 
COMPS,ioos:station:USF.COMPS:SHP:1,2016-12-01T06:30:00Z,30.0600,-84.2910,87.53,1111122 
COMPS,ioos:station:USF.COMPS:SHP:1,2016-12-01T06:36:00Z,30.0600,-84.2910,87.94,1111122 
COMPS,ioos:station:USF.COMPS:SHP:1,2016-12-01T06:42:00Z,30.0600,-84.2910,86.92,1111122 
COMPS,ioos:station:USF.COMPS:SHP:1,2016-12-01T06:48:00Z,30.0600,-84.2910,86.74,1111122 
COMPS,ioos:station:USF.COMPS:SHP:1,2016-12-01T06:54:00Z,30.0600,-84.2910,86.96,1111122 
COMPS,ioos:station:USF.COMPS:SHP:1,2016-12-01T07:00:00Z,30.0600,-84.2910,86.94,1111122 
COMPS,ioos:station:USF.COMPS:SHP:1,2016-12-01T07:06:00Z,30.0600,-84.2910,87.99,1111122 
COMPS,ioos:station:USF.COMPS:SHP:1,2016-12-01T07:12:00Z,30.0600,-84.2910,88.08,1111122 
COMPS,ioos:station:USF.COMPS:SHP:1,2016-12-01T07:18:00Z,30.0600,-84.2910,87.68,1111122 
COMPS,ioos:station:USF.COMPS:SHP:1,2016-12-01T07:24:00Z,30.0600,-84.2910,87.33,1111122 
COMPS,ioos:station:USF.COMPS:SHP:1,2016-12-01T07:30:00Z,30.0600,-84.2910,86.67,1111122 
COMPS,ioos:station:USF.COMPS:SHP:1,2016-12-01T07:36:00Z,30.0600,-84.2910,86.08,1111122 
COMPS,ioos:station:USF.COMPS:SHP:1,2016-12-01T07:42:00Z,30.0600,-84.2910,85.44,1111122 
COMPS,ioos:station:USF.COMPS:SHP:1,2016-12-01T07:48:00Z,30.0600,-84.2910,84.87,1111122 
COMPS,ioos:station:USF.COMPS:SHP:1,2016-12-01T07:54:00Z,30.0600,-84.2910,84.52,1111122 
COMPS,ioos:station:USF.COMPS:SHP:1,2016-12-01T08:00:00Z,30.0600,-84.2910,84.7,1111122 
COMPS,ioos:station:USF.COMPS:SHP:1,2016-12-01T08:06:00Z,30.0600,-84.2910,84.65,1111122 
COMPS,ioos:station:USF.COMPS:SHP:1,2016-12-01T08:12:00Z,30.0600,-84.2910,84.48,1111122 
COMPS,ioos:station:USF.COMPS:SHP:1,2016-12-01T08:18:00Z,30.0600,-84.2910,83.83,1111122 
COMPS,ioos:station:USF.COMPS:SHP:1,2016-12-01T08:24:00Z,30.0600,-84.2910,82.99,1111122 
COMPS,ioos:station:USF.COMPS:SHP:1,2016-12-01T08:30:00Z,30.0600,-84.2910,82.71,1111122 
COMPS,ioos:station:USF.COMPS:SHP:1,2016-12-01T08:36:00Z,30.0600,-84.2910,82.71,1111122 
COMPS,ioos:station:USF.COMPS:SHP:1,2016-12-01T08:42:00Z,30.0600,-84.2910,82.73,1111122 
COMPS,ioos:station:USF.COMPS:SHP:1,2016-12-01T08:48:00Z,30.0600,-84.2910,82.63,1111122 
COMPS,ioos:station:USF.COMPS:SHP:1,2016-12-01T08:54:00Z,30.0600,-84.2910,82.39,1111122 
COMPS,ioos:station:USF.COMPS:SHP:1,2016-12-01T09:00:00Z,30.0600,-84.2910,82.57,1111122 
COMPS,ioos:station:USF.COMPS:SHP:1,2016-12-01T09:06:00Z,30.0600,-84.2910,81.85,1111122 
COMPS,ioos:station:USF.COMPS:SHP:1,2016-12-01T09:12:00Z,30.0600,-84.2910,79.56,1111122 
COMPS,ioos:station:USF.COMPS:SHP:1,2016-12-01T09:18:00Z,30.0600,-84.2910,78.98,1111122 
COMPS,ioos:station:USF.COMPS:SHP:1,2016-12-01T09:24:00Z,30.0600,-84.2910,76.35,1111122 
COMPS,ioos:station:USF.COMPS:SHP:1,2016-12-01T09:30:00Z,30.0600,-84.2910,77.7,1111122 
COMPS,ioos:station:USF.COMPS:SHP:1,2016-12-01T09:36:00Z,30.0600,-84.2910,79.55,1111122 
COMPS,ioos:station:USF.COMPS:SHP:1,2016-12-01T09:42:00Z,30.0600,-84.2910,79.37,1111122 
COMPS,ioos:station:USF.COMPS:SHP:1,2016-12-01T09:48:00Z,30.0600,-84.2910,77.18,1111122 
COMPS,ioos:station:USF.COMPS:SHP:1,2016-12-01T09:54:00Z,30.0600,-84.2910,73.25,1111122 
COMPS,ioos:station:USF.COMPS:SHP:1,2016-12-01T10:00:00Z,30.0600,-84.2910,70.3,1111122 
COMPS,ioos:station:USF.COMPS:SHP:1,2016-12-01T10:06:00Z,30.0600,-84.2910,69.38,1111122 
COMPS,ioos:station:USF.COMPS:SHP:1,2016-12-01T10:12:00Z,30.0600,-84.2910,68.43,1111122 
COMPS,ioos:station:USF.COMPS:SHP:1,2016-12-01T10:18:00Z,30.0600,-84.2910,68.94,1111122 
COMPS,ioos:station:USF.COMPS:SHP:1,2016-12-01T10:24:00Z,30.0600,-84.2910,70.17,1111122 
COMPS,ioos:station:USF.COMPS:SHP:1,2016-12-01T10:30:00Z,30.0600,-84.2910,70.96,1111122 
COMPS,ioos:station:USF.COMPS:SHP:1,2016-12-01T10:36:00Z,30.0600,-84.2910,71.4,1111122 
COMPS,ioos:station:USF.COMPS:SHP:1,2016-12-01T10:42:00Z,30.0600,-84.2910,71.01,1111122 
COMPS,ioos:station:USF.COMPS:SHP:1,2016-12-01T10:48:00Z,30.0600,-84.2910,69.97,1111122 
COMPS,ioos:station:USF.COMPS:SHP:1,2016-12-01T10:54:00Z,30.0600,-84.2910,68.94,1111122 
COMPS,ioos:station:USF.COMPS:SHP:1,2016-12-01T11:00:00Z,30.0600,-84.2910,73.09,1111122 
COMPS,ioos:station:USF.COMPS:SHP:1,2016-12-01T11:06:00Z,30.0600,-84.2910,75.7,1111122 
COMPS,ioos:station:USF.COMPS:SHP:1,2016-12-01T11:12:00Z,30.0600,-84.2910,77.49,1111122 
COMPS,ioos:station:USF.COMPS:SHP:1,2016-12-01T11:18:00Z,30.0600,-84.2910,78.23,1111122 
COMPS,ioos:station:USF.COMPS:SHP:1,2016-12-01T11:24:00Z,30.0600,-84.2910,77.66,1111122 
COMPS,ioos:station:USF.COMPS:SHP:1,2016-12-01T11:30:00Z,30.0600,-84.2910,75.2,1111122 
COMPS,ioos:station:USF.COMPS:SHP:1,2016-12-01T11:36:00Z,30.0600,-84.2910,72.51,1111122 
COMPS,ioos:station:USF.COMPS:SHP:1,2016-12-01T11:42:00Z,30.0600,-84.2910,71.45,1111122 
COMPS,ioos:station:USF.COMPS:SHP:1,2016-12-01T11:48:00Z,30.0600,-84.2910,71.35,1111122 
COMPS,ioos:station:USF.COMPS:SHP:1,2016-12-01T11:54:00Z,30.0600,-84.2910,71.57,1111122 
COMPS,ioos:station:USF.COMPS:SHP:1,2016-12-01T12:00:00Z,30.0600,-84.2910,71.89,1111122 
COMPS,ioos:station:USF.COMPS:SHP:1,2016-12-01T12:06:00Z,30.0600,-84.2910,71.01,1111122 
COMPS,ioos:station:USF.COMPS:SHP:1,2016-12-01T12:12:00Z,30.0600,-84.2910,72.82,1111122 
COMPS,ioos:station:USF.COMPS:SHP:1,2016-12-01T12:18:00Z,30.0600,-84.2910,72.34,1111122 
COMPS,ioos:station:USF.COMPS:SHP:1,2016-12-01T12:24:00Z,30.0600,-84.2910,70.79,1111122 
COMPS,ioos:station:USF.COMPS:SHP:1,2016-12-01T12:30:00Z,30.0600,-84.2910,69.0,1111122 
COMPS,ioos:station:USF.COMPS:SHP:1,2016-12-01T12:36:00Z,30.0600,-84.2910,66.77,1111122 
COMPS,ioos:station:USF.COMPS:SHP:1,2016-12-01T12:42:00Z,30.0600,-84.2910,65.51,1111122 
COMPS,ioos:station:USF.COMPS:SHP:1,2016-12-01T12:48:00Z,30.0600,-84.2910,64.84,1111122 
COMPS,ioos:station:USF.COMPS:SHP:1,2016-12-01T12:54:00Z,30.0600,-84.2910,65.42,1111122 
COMPS,ioos:station:USF.COMPS:SHP:1,2016-12-01T13:00:00Z,30.0600,-84.2910,65.08,1111122 
COMPS,ioos:station:USF.COMPS:SHP:1,2016-12-01T13:06:00Z,30.0600,-84.2910,65.02,1111122 
COMPS,ioos:station:USF.COMPS:SHP:1,2016-12-01T13:12:00Z,30.0600,-84.2910,65.55,1111122 
COMPS,ioos:station:USF.COMPS:SHP:1,2016-12-01T13:18:00Z,30.0600,-84.2910,65.87,1111122 
COMPS,ioos:station:USF.COMPS:SHP:1,2016-12-01T13:24:00Z,30.0600,-84.2910,65.92,1111122 
COMPS,ioos:station:USF.COMPS:SHP:1,2016-12-01T13:30:00Z,30.0600,-84.2910,66.19,1111122 
COMPS,ioos:station:USF.COMPS:SHP:1,2016-12-01T13:36:00Z,30.0600,-84.2910,66.61,1111122 
COMPS,ioos:station:USF.COMPS:SHP:1,2016-12-01T13:42:00Z,30.0600,-84.2910,66.11,1111122 
COMPS,ioos:station:USF.COMPS:SHP:1,2016-12-01T13:48:00Z,30.0600,-84.2910,66.31,1111122 
COMPS,ioos:station:USF.COMPS:SHP:1,2016-12-01T13:54:00Z,30.0600,-84.2910,68.37,1111122 
COMPS,ioos:station:USF.COMPS:SHP:1,2016-12-01T14:00:00Z,30.0600,-84.2910,67.87,1111122 
COMPS,ioos:station:USF.COMPS:SHP:1,2016-12-01T14:06:00Z,30.0600,-84.2910,66.54,1111122 
COMPS,ioos:station:USF.COMPS:SHP:1,2016-12-01T14:12:00Z,30.0600,-84.2910,66.92,1111122 
COMPS,ioos:station:USF.COMPS:SHP:1,2016-12-01T14:18:00Z,30.0600,-84.2910,66.15,1111122 
COMPS,ioos:station:USF.COMPS:SHP:1,2016-12-01T14:24:00Z,30.0600,-84.2910,66.28,1111122 
COMPS,ioos:station:USF.COMPS:SHP:1,2016-12-01T14:30:00Z,30.0600,-84.2910,65.81,1111122 
COMPS,ioos:station:USF.COMPS:SHP:1,2016-12-01T14:36:00Z,30.0600,-84.2910,65.36,1111122 
COMPS,ioos:station:USF.COMPS:SHP:1,2016-12-01T14:42:00Z,30.0600,-84.2910,64.4,1111122 
COMPS,ioos:station:USF.COMPS:SHP:1,2016-12-01T14:48:00Z,30.0600,-84.2910,64.5,1111122 
COMPS,ioos:station:USF.COMPS:SHP:1,2016-12-01T14:54:00Z,30.0600,-84.2910,63.39,1111122 
COMPS,ioos:station:USF.COMPS:SHP:1,2016-12-01T15:00:00Z,30.0600,-84.2910,62.19,1111122 
COMPS,ioos:station:USF.COMPS:SHP:1,2016-12-01T15:06:00Z,30.0600,-84.2910,61.2,1111122 
COMPS,ioos:station:USF.COMPS:SHP:1,2016-12-01T15:12:00Z,30.0600,-84.2910,60.48,1111122 
COMPS,ioos:station:USF.COMPS:SHP:1,2016-12-01T15:18:00Z,30.0600,-84.2910,58.46,1111122 
COMPS,ioos:station:USF.COMPS:SHP:1,2016-12-01T15:24:00Z,30.0600,-84.2910,56.95,1111122 
COMPS,ioos:station:USF.COMPS:SHP:1,2016-12-01T15:30:00Z,30.0600,-84.2910,56.33,1111122 
COMPS,ioos:station:USF.COMPS:SHP:1,2016-12-01T15:36:00Z,30.0600,-84.2910,56.04,1111122 
COMPS,ioos:station:USF.COMPS:SHP:1,2016-12-01T15:42:00Z,30.0600,-84.2910,56.38,1111122 
COMPS,ioos:station:USF.COMPS:SHP:1,2016-12-01T15:48:00Z,30.0600,-84.2910,56.23,1111122 
COMPS,ioos:station:USF.COMPS:SHP:1,2016-12-01T15:54:00Z,30.0600,-84.2910,54.3,1111122 
COMPS,ioos:station:USF.COMPS:SHP:1,2016-12-01T16:00:00Z,30.0600,-84.2910,53.92,1111122 
COMPS,ioos:station:USF.COMPS:SHP:1,2016-12-01T16:06:00Z,30.0600,-84.2910,52.62,1111122 
COMPS,ioos:station:USF.COMPS:SHP:1,2016-12-01T16:12:00Z,30.0600,-84.2910,52.57,1111122 
COMPS,ioos:station:USF.COMPS:SHP:1,2016-12-01T16:18:00Z,30.0600,-84.2910,51.24,1111122 
COMPS,ioos:station:USF.COMPS:SHP:1,2016-12-01T16:24:00Z,30.0600,-84.2910,50.58,1111122 
COMPS,ioos:station:USF.COMPS:SHP:1,2016-12-01T16:30:00Z,30.0600,-84.2910,50.04,1111122 
COMPS,ioos:station:USF.COMPS:SHP:1,2016-12-01T16:36:00Z,30.0600,-84.2910,49.51,1111122 
COMPS,ioos:station:USF.COMPS:SHP:1,2016-12-01T16:42:00Z,30.0600,-84.2910,48.54,1111122 
COMPS,ioos:station:USF.COMPS:SHP:1,2016-12-01T16:48:00Z,30.0600,-84.2910,48.58,1111122 
COMPS,ioos:station:USF.COMPS:SHP:1,2016-12-01T16:54:00Z,30.0600,-84.2910,49.42,1111122 
COMPS,ioos:station:USF.COMPS:SHP:1,2016-12-01T17:00:00Z,30.0600,-84.2910,49.8,1111122 
COMPS,ioos:station:USF.COMPS:SHP:1,2016-12-01T17:06:00Z,30.0600,-84.2910,51.2,1111122 
COMPS,ioos:station:USF.COMPS:SHP:1,2016-12-01T17:12:00Z,30.0600,-84.2910,51.04,1111122 
COMPS,ioos:station:USF.COMPS:SHP:1,2016-12-01T17:18:00Z,30.0600,-84.2910,51.02,1111122 
COMPS,ioos:station:USF.COMPS:SHP:1,2016-12-01T17:24:00Z,30.0600,-84.2910,49.92,1111122 
COMPS,ioos:station:USF.COMPS:SHP:1,2016-12-01T17:30:00Z,30.0600,-84.2910,47.37,1111122 
COMPS,ioos:station:USF.COMPS:SHP:1,2016-12-01T17:36:00Z,30.0600,-84.2910,47.8,1111122 
COMPS,ioos:station:USF.COMPS:SHP:1,2016-12-01T17:42:00Z,30.0600,-84.2910,44.05,1111122 
COMPS,ioos:station:USF.COMPS:SHP:1,2016-12-01T17:48:00Z,30.0600,-84.2910,44.87,1111122 
COMPS,ioos:station:USF.COMPS:SHP:1,2016-12-01T17:54:00Z,30.0600,-84.2910,44.99,1111122 
COMPS,ioos:station:USF.COMPS:SHP:1,2016-12-01T18:00:00Z,30.0600,-84.2910,45.17,1111122 
COMPS,ioos:station:USF.COMPS:SHP:1,2016-12-01T18:06:00Z,30.0600,-84.2910,45.07,1111122 
COMPS,ioos:station:USF.COMPS:SHP:1,2016-12-01T18:12:00Z,30.0600,-84.2910,45.69,1111122 
COMPS,ioos:station:USF.COMPS:SHP:1,2016-12-01T18:18:00Z,30.0600,-84.2910,44.87,1111122 
COMPS,ioos:station:USF.COMPS:SHP:1,2016-12-01T18:24:00Z,30.0600,-84.2910,44.29,1111122 
COMPS,ioos:station:USF.COMPS:SHP:1,2016-12-01T18:30:00Z,30.0600,-84.2910,43.32,1111122 
COMPS,ioos:station:USF.COMPS:SHP:1,2016-12-01T18:36:00Z,30.0600,-84.2910,43.13,1111122 
COMPS,ioos:station:USF.COMPS:SHP:1,2016-12-01T18:42:00Z,30.0600,-84.2910,43.3,1111122 
COMPS,ioos:station:USF.COMPS:SHP:1,2016-12-01T18:48:00Z,30.0600,-84.2910,42.01,1111122 
COMPS,ioos:station:USF.COMPS:SHP:1,2016-12-01T18:54:00Z,30.0600,-84.2910,41.68,1111122 
COMPS,ioos:station:USF.COMPS:SHP:1,2016-12-01T19:00:00Z,30.0600,-84.2910,41.81,1111122 
COMPS,ioos:station:USF.COMPS:SHP:1,2016-12-01T19:06:00Z,30.0600,-84.2910,41.76,1111122 
COMPS,ioos:station:USF.COMPS:SHP:1,2016-12-01T19:12:00Z,30.0600,-84.2910,41.46,1111122 
COMPS,ioos:station:USF.COMPS:SHP:1,2016-12-01T19:18:00Z,30.0600,-84.2910,41.76,1111122 
COMPS,ioos:station:USF.COMPS:SHP:1,2016-12-01T19:24:00Z,30.0600,-84.2910,39.58,1111122 
COMPS,ioos:station:USF.COMPS:SHP:1,2016-12-01T19:30:00Z,30.0600,-84.2910,38.4,1111122 
COMPS,ioos:station:USF.COMPS:SHP:1,2016-12-01T19:36:00Z,30.0600,-84.2910,37.23,1111122 
COMPS,ioos:station:USF.COMPS:SHP:1,2016-12-01T19:42:00Z,30.0600,-84.2910,36.98,1111122 
COMPS,ioos:station:USF.COMPS:SHP:1,2016-12-01T19:48:00Z,30.0600,-84.2910,37.19,1111122 
COMPS,ioos:station:USF.COMPS:SHP:1,2016-12-01T19:54:00Z,30.0600,-84.2910,37.68,1111122 
COMPS,ioos:station:USF.COMPS:SHP:1,2016-12-01T20:00:00Z,30.0600,-84.2910,36.82,1111122 
COMPS,ioos:station:USF.COMPS:SHP:1,2016-12-01T20:06:00Z,30.0600,-84.2910,37.45,1111122 
COMPS,ioos:station:USF.COMPS:SHP:1,2016-12-01T20:12:00Z,30.0600,-84.2910,38.84,1111122 
COMPS,ioos:station:USF.COMPS:SHP:1,2016-12-01T20:18:00Z,30.0600,-84.2910,38.02,1111122 
COMPS,ioos:station:USF.COMPS:SHP:1,2016-12-01T20:24:00Z,30.0600,-84.2910,38.0,1111122 
COMPS,ioos:station:USF.COMPS:SHP:1,2016-12-01T20:30:00Z,30.0600,-84.2910,39.23,1111122 
COMPS,ioos:station:USF.COMPS:SHP:1,2016-12-01T20:36:00Z,30.0600,-84.2910,39.25,1111122 
COMPS,ioos:station:USF.COMPS:SHP:1,2016-12-01T20:42:00Z,30.0600,-84.2910,39.14,1111122 
COMPS,ioos:station:USF.COMPS:SHP:1,2016-12-01T20:48:00Z,30.0600,-84.2910,38.69,1111122 
COMPS,ioos:station:USF.COMPS:SHP:1,2016-12-01T20:54:00Z,30.0600,-84.2910,39.09,1111122 
COMPS,ioos:station:USF.COMPS:SHP:1,2016-12-01T21:00:00Z,30.0600,-84.2910,38.29,1111122 
COMPS,ioos:station:USF.COMPS:SHP:1,2016-12-01T21:06:00Z,30.0600,-84.2910,38.99,1111122 
COMPS,ioos:station:USF.COMPS:SHP:1,2016-12-01T21:12:00Z,30.0600,-84.2910,39.14,1111122 
COMPS,ioos:station:USF.COMPS:SHP:1,2016-12-01T21:18:00Z,30.0600,-84.2910,39.09,1111122 
COMPS,ioos:station:USF.COMPS:SHP:1,2016-12-01T21:24:00Z,30.0600,-84.2910,39.27,1111122 
COMPS,ioos:station:USF.COMPS:SHP:1,2016-12-01T21:30:00Z,30.0600,-84.2910,39.46,1111122 
COMPS,ioos:station:USF.COMPS:SHP:1,2016-12-01T21:36:00Z,30.0600,-84.2910,39.57,1111122 
COMPS,ioos:station:USF.COMPS:SHP:1,2016-12-01T21:42:00Z,30.0600,-84.2910,39.73,1111122 
COMPS,ioos:station:USF.COMPS:SHP:1,2016-12-01T21:48:00Z,30.0600,-84.2910,39.94,1111122 
COMPS,ioos:station:USF.COMPS:SHP:1,2016-12-01T21:54:00Z,30.0600,-84.2910,40.03,1111122 
COMPS,ioos:station:USF.COMPS:SHP:1,2016-12-01T22:00:00Z,30.0600,-84.2910,40.11,1111122 
COMPS,ioos:station:USF.COMPS:SHP:1,2016-12-01T22:06:00Z,30.0600,-84.2910,40.78,1111122 
COMPS,ioos:station:USF.COMPS:SHP:1,2016-12-01T22:12:00Z,30.0600,-84.2910,42.97,1111122 
COMPS,ioos:station:USF.COMPS:SHP:1,2016-12-01T22:18:00Z,30.0600,-84.2910,43.82,1111122 
COMPS,ioos:station:USF.COMPS:SHP:1,2016-12-01T22:24:00Z,30.0600,-84.2910,43.94,1111122 
COMPS,ioos:station:USF.COMPS:SHP:1,2016-12-01T22:30:00Z,30.0600,-84.2910,44.82,1111122 
COMPS,ioos:station:USF.COMPS:SHP:1,2016-12-01T22:36:00Z,30.0600,-84.2910,44.84,1111122 
COMPS,ioos:station:USF.COMPS:SHP:1,2016-12-01T22:42:00Z,30.0600,-84.2910,46.01,1111122 
COMPS,ioos:station:USF.COMPS:SHP:1,2016-12-01T22:48:00Z,30.0600,-84.2910,45.44,1111122 
COMPS,ioos:station:USF.COMPS:SHP:1,2016-12-01T22:54:00Z,30.0600,-84.2910,47.06,1111122 
COMPS,ioos:station:USF.COMPS:SHP:1,2016-12-01T23:00:00Z,30.0600,-84.2910,45.53,1111122 
COMPS,ioos:station:USF.COMPS:SHP:1,2016-12-01T23:06:00Z,30.0600,-84.2910,46.21,1111122 
COMPS,ioos:station:USF.COMPS:SHP:1,2016-12-01T23:12:00Z,30.0600,-84.2910,48.01,1111122 
COMPS,ioos:station:USF.COMPS:SHP:1,2016-12-01T23:18:00Z,30.0600,-84.2910,47.49,1111122 
COMPS,ioos:station:USF.COMPS:SHP:1,2016-12-01T23:24:00Z,30.0600,-84.2910,49.06,1111122 
COMPS,ioos:station:USF.COMPS:SHP:1,2016-12-01T23:30:00Z,30.0600,-84.2910,49.25,1111122 
COMPS,ioos:station:USF.COMPS:SHP:1,2016-12-01T23:36:00Z,30.0600,-84.2910,50.43,1111122 
COMPS,ioos:station:USF.COMPS:SHP:1,2016-12-01T23:42:00Z,30.0600,-84.2910,51.8,1111122 
COMPS,ioos:station:USF.COMPS:SHP:1,2016-12-01T23:48:00Z,30.0600,-84.2910,50.13,1111122 
COMPS,ioos:station:USF.COMPS:SHP:1,2016-12-01T23:54:00Z,30.0600,-84.2910,48.46,1111122 
COMPS,ioos:station:USF.COMPS:SHP:1,2016-12-02T00:00:00Z,30.0600,-84.2910,46.42,1111122 
COMPS,ioos:station:USF.COMPS:SHP:1,2016-12-02T00:06:00Z,30.0600,-84.2910,48.65,1111122 
COMPS,ioos:station:USF.COMPS:SHP:1,2016-12-02T00:12:00Z,30.0600,-84.2910,50.66,1111122 
COMPS,ioos:station:USF.COMPS:SHP:1,2016-12-02T00:18:00Z,30.0600,-84.2910,51.3,1111122 
COMPS,ioos:station:USF.COMPS:SHP:1,2016-12-02T00:24:00Z,30.0600,-84.2910,51.79,1111122 
COMPS,ioos:station:USF.COMPS:SHP:1,2016-12-02T00:30:00Z,30.0600,-84.2910,54.37,1111122 
COMPS,ioos:station:USF.COMPS:SHP:1,2016-12-02T00:36:00Z,30.0600,-84.2910,55.18,1111122 
COMPS,ioos:station:USF.COMPS:SHP:1,2016-12-02T00:42:00Z,30.0600,-84.2910,52.32,1111122 
COMPS,ioos:station:USF.COMPS:SHP:1,2016-12-02T00:48:00Z,30.0600,-84.2910,52.04,1111122 
COMPS,ioos:station:USF.COMPS:SHP:1,2016-12-02T00:54:00Z,30.0600,-84.2910,52.42,1111122 
COMPS,ioos:station:USF.COMPS:SHP:1,2016-12-02T01:00:00Z,30.0600,-84.2910,53.18,1111122 
COMPS,ioos:station:USF.COMPS:SHP:1,2016-12-02T01:06:00Z,30.0600,-84.2910,53.83,1111122 
COMPS,ioos:station:USF.COMPS:SHP:1,2016-12-02T01:12:00Z,30.0600,-84.2910,56.02,1111122 
COMPS,ioos:station:USF.COMPS:SHP:1,2016-12-02T01:18:00Z,30.0600,-84.2910,57.48,1111122 
COMPS,ioos:station:USF.COMPS:SHP:1,2016-12-02T01:24:00Z,30.0600,-84.2910,56.19,1111122 
COMPS,ioos:station:USF.COMPS:SHP:1,2016-12-02T01:30:00Z,30.0600,-84.2910,55.78,1111122 
COMPS,ioos:station:USF.COMPS:SHP:1,2016-12-02T01:36:00Z,30.0600,-84.2910,56.2,1111122 
COMPS,ioos:station:USF.COMPS:SHP:1,2016-12-02T01:42:00Z,30.0600,-84.2910,56.95,1111122 
COMPS,ioos:station:USF.COMPS:SHP:1,2016-12-02T01:48:00Z,30.0600,-84.2910,55.83,1111122 
COMPS,ioos:station:USF.COMPS:SHP:1,2016-12-02T01:54:00Z,30.0600,-84.2910,56.35,1111122 
COMPS,ioos:station:USF.COMPS:SHP:1,2016-12-02T02:00:00Z,30.0600,-84.2910,56.97,1111122 
COMPS,ioos:station:USF.COMPS:SHP:1,2016-12-02T02:06:00Z,30.0600,-84.2910,55.98,1111122 
COMPS,ioos:station:USF.COMPS:SHP:1,2016-12-02T02:12:00Z,30.0600,-84.2910,57.61,1111122 
COMPS,ioos:station:USF.COMPS:SHP:1,2016-12-02T02:18:00Z,30.0600,-84.2910,57.61,1111122 
COMPS,ioos:station:USF.COMPS:SHP:1,2016-12-02T02:24:00Z,30.0600,-84.2910,56.48,1111122 
COMPS,ioos:station:USF.COMPS:SHP:1,2016-12-02T02:30:00Z,30.0600,-84.2910,56.7,1111122 
COMPS,ioos:station:USF.COMPS:SHP:1,2016-12-02T02:36:00Z,30.0600,-84.2910,58.18,1111122 
COMPS,ioos:station:USF.COMPS:SHP:1,2016-12-02T02:42:00Z,30.0600,-84.2910,58.98,1111122 
COMPS,ioos:station:USF.COMPS:SHP:1,2016-12-02T02:48:00Z,30.0600,-84.2910,58.52,1111122 
COMPS,ioos:station:USF.COMPS:SHP:1,2016-12-02T02:54:00Z,30.0600,-84.2910,58.89,1111122 
COMPS,ioos:station:USF.COMPS:SHP:1,2016-12-02T03:00:00Z,30.0600,-84.2910,60.82,1111122 
COMPS,ioos:station:USF.COMPS:SHP:1,2016-12-02T03:06:00Z,30.0600,-84.2910,60.66,1111122 